Wind_Speed
9 10 11 15 17 18 18 17 17 17 17 16 16 16 16 14 12 10 10 13 14 14 11 11 14 21 21 19 18 17 19 20 22 24 23 24 25 26 28 29 30 31 31
10 10 13 15 15 15 16 15 15 15 15 16 15 16 16 16 16 14 15 16 17 18 19 17 16 16 19 22 23 22 23 25 25 26 28 29 29 29 30 32 33 33 35
10 11 14 15 14 15 16 15 14 14 14 15 15 15 16 17 17 18 18 18 19 19 22 24 23 23 23 24 23 25 26 28 28 27 29 31 33 31 32 33 34 34 35
11 12 15 14 15 16 16 15 15 15 15 16 16 16 17 17 19 19 19 19 19 19 19 21 24 25 25 26 26 27 28 28 29 27 27 28 29 30 31 30 30 32 33
12 14 14 15 16 16 18 16 15 16 17 17 17 16 16 17 19 20 21 22 22 20 19 20 21 23 24 25 25 26 27 27 28 26 26 27 27 26 28 28 26 26 27
13 15 17 17 17 18 20 17 19 23 24 24 22 20 17 15 14 14 16 17 20 23 23 22 22 22 23 23 24 24 25 26 26 26 26 27 27 26 27 27 26 27 25
15 16 18 18 19 19 19 20 23 29 29 26 22 20 18 16 15 14 14 14 14 15 17 19 19 20 21 24 26 26 26 26 28 28 29 29 29 30 30 30 27 30 28
17 18 20 21 23 26 26 26 30 30 24 23 21 19 17 16 15 15 14 15 15 16 16 17 18 19 20 21 22 23 25 30 31 31 32 32 32 33 33 34 35 34 32
19 21 24 25 28 32 31 30 31 29 23 21 19 18 18 17 18 20 21 22 24 25 26 27 26 25 26 26 27 26 25 25 26 29 32 35 36 37 37 37 38 39 40
24 25 27 29 32 34 36 34 34 31 27 24 24 24 25 27 28 30 31 32 33 34 34 34 34 36 37 37 36 34 32 32 30 28 28 29 31 34 35 36 38 39 41
28 29 31 35 38 38 36 37 36 30 32 30 30 31 32 33 34 34 36 37 37 36 37 37 38 38 37 38 42 44 42 39 37 35 34 31 31 31 31 32 33 33 35
30 34 37 43 47 47 42 41 34 33 33 33 33 35 36 38 39 41 42 41 39 40 41 41 42 42 43 43 41 41 43 47 45 42 41 36 36 34 33 33 32 32 32
43 47 47 45 42 40 39 36 35 34 34 35 37 38 41 43 45 45 44 43 44 45 44 45 47 49 49 46 45 47 45 45 46 46 46 43 41 38 37 36 35 35 35
23 30 31 29 29 30 32 35 35 36 36 39 41 42 43 45 46 48 48 47 49 50 49 48 49 48 46 46 45 46 46 46 47 47 47 45 43 42 40 40 38 38 37
33 30 30 30 29 32 33 35 34 38 41 43 43 44 46 49 51 50 52 52 52 52 49 48 45 42 43 43 45 44 46 45 45 47 49 47 46 44 42 42 41 40 39
28 30 34 34 34 36 37 38 39 41 43 45 44 45 50 50 48 49 53 51 49 47 45 39 38 38 40 40 41 43 44 45 45 44 45 47 48 46 45 43 42 42 41
28 31 34 36 40 43 44 43 43 47 50 51 55 56 50 49 47 45 46 47 44 40 38 36 36 36 36 37 37 37 41 43 43 42 42 41 43 44 45 44 43 43 42
33 36 40 44 48 50 53 56 58 59 56 54 53 48 45 43 41 37 35 33 32 31 31 30 31 32 31 32 33 34 36 38 39 39 39 39 38 38 40 41 44 45 43
53 56 57 57 57 54 53 55 55 52 48 44 43 42 39 36 31 29 28 27 28 28 28 29 29 32 32 32 32 33 34 36 35 36 37 36 36 34 35 40 42 43 42
63 64 60 54 51 51 49 50 50 46 41 36 35 33 33 31 31 30 30 31 33 34 34 32 31 32 31 32 35 34 35 35 36 34 34 35 37 35 33 39 42 44 40
47 44 43 40 42 43 44 41 40 35 30 31 31 31 31 33 33 34 34 37 38 39 39 39 38 37 36 33 33 37 38 36 36 36 33 31 32 35 36 39 42 43 37
39 36 37 37 35 31 32 29 29 29 31 33 33 33 33 34 36 38 40 42 44 45 45 45 44 40 38 39 36 35 37 39 37 34 33 32 31 32 34 38 40 39 38
30 28 28 30 30 24 25 30 29 35 38 38 37 36 37 37 39 41 44 46 47 45 44 43 43 42 40 42 43 39 37 37 38 34 32 34 33 32 33 35 36 35 38
32 31 29 30 32 32 33 36 39 40 40 40 41 40 41 41 42 43 45 46 42 38 37 38 39 38 38 37 39 41 40 37 37 36 31 32 34 33 33 32 33 34 36
44 43 41 40 40 41 42 43 44 45 47 46 46 46 45 45 46 45 42 41 38 37 37 37 38 41 42 39 40 41 40 38 36 36 34 31 31 33 32 31 32 34 34
50 48 47 44 45 47 48 48 49 48 47 47 47 47 48 49 48 45 43 40 39 37 36 37 39 41 43 41 39 40 39 39 37 36 35 33 32 32 31 31 32 32 33
Wind_Direction
286 303 320 329 328 326 322 319 319 322 325 326 327 331 337 335 325 317 291 296 303 307 307 305 286 275 281 272 280 278 275 268 266 262 264 264 266 268 272 272 270 269 267
278 298 321 326 321 321 319 318 318 319 319 320 319 319 319 319 317 312 300 294 292 293 293 289 285 279 279 276 283 283 281 277 272 270 273 272 268 266 268 268 267 265 262
280 298 317 321 322 322 319 323 327 325 318 312 312 309 304 301 299 298 296 295 294 292 293 293 291 287 285 284 283 283 282 281 280 278 275 275 273 272 268 266 265 264 262
279 303 320 317 322 327 324 324 328 330 329 323 316 306 299 299 298 294 291 291 292 293 290 290 292 290 284 280 279 277 276 279 279 280 279 276 276 274 269 268 268 264 262
287 304 311 308 313 320 328 317 319 322 326 324 318 313 305 299 294 295 296 294 292 289 287 287 288 291 291 289 283 276 275 274 275 278 278 277 276 275 273 269 267 265 267
285 303 306 307 313 317 321 308 311 318 316 312 309 305 303 303 304 304 303 303 299 297 295 290 286 285 286 286 284 281 278 277 275 275 274 275 276 276 275 273 272 271 268
281 301 304 303 309 316 317 310 310 318 310 304 297 292 293 294 295 299 301 301 302 303 302 303 303 299 291 286 284 283 280 274 274 274 273 273 274 276 277 277 273 272 272
278 293 301 300 305 311 311 309 321 322 307 300 294 289 287 290 292 295 299 303 304 306 307 306 306 307 303 300 294 288 283 281 277 274 273 273 274 274 276 278 279 275 273
280 287 293 299 305 309 312 315 320 318 299 291 290 290 290 292 295 296 295 298 302 303 303 302 300 300 302 301 299 295 291 286 283 282 279 276 274 273 273 273 276 278 277
279 283 287 295 299 305 308 311 311 311 294 284 283 287 291 295 296 295 293 293 292 295 297 298 296 292 291 292 294 293 291 288 285 282 281 281 280 277 275 273 271 273 276
280 284 290 296 298 298 298 301 298 291 287 283 283 285 287 289 292 294 295 293 292 293 295 297 295 292 287 284 283 285 286 286 283 282 279 277 277 278 278 276 275 274 275
283 286 288 292 292 291 289 287 278 280 282 285 287 289 290 290 291 292 295 296 293 289 293 293 293 293 290 284 283 281 273 276 278 279 278 275 274 273 274 275 276 276 277
285 286 285 283 282 280 280 280 277 277 279 283 286 289 293 294 295 296 297 296 296 297 296 295 295 293 292 288 280 277 275 266 265 267 269 270 269 271 271 270 271 273 274
288 289 293 288 282 279 276 275 277 282 284 286 288 290 292 294 294 295 295 297 300 295 293 294 295 292 286 284 281 276 272 267 263 263 264 265 266 266 267 269 269 270 271
297 299 301 296 289 279 279 280 282 283 284 285 287 289 290 292 294 298 298 301 305 300 292 291 291 285 282 280 280 277 273 271 267 263 262 264 265 265 264 264 265 267 269
295 298 298 292 282 276 275 275 278 282 285 287 290 298 297 296 298 301 301 299 297 295 292 291 289 285 282 281 280 279 276 274 273 269 264 263 263 264 264 263 264 264 264
284 287 283 277 275 278 278 280 287 297 298 295 295 301 302 299 296 297 296 295 295 294 294 294 293 289 286 284 283 283 280 277 276 275 271 266 263 261 261 262 263 263 264
281 286 289 289 292 290 289 293 296 299 299 300 300 296 293 293 295 297 299 299 298 299 298 296 293 292 290 288 286 285 283 281 279 278 276 273 267 261 259 259 261 262 263
297 299 298 298 297 293 292 291 292 294 294 293 288 289 293 295 295 295 295 296 298 301 303 304 300 292 287 287 286 283 282 279 280 278 276 276 275 269 262 258 256 259 260
296 297 296 295 289 285 281 282 288 291 292 289 287 288 290 292 294 296 296 297 299 300 301 302 304 302 300 287 284 286 284 283 279 277 275 273 272 271 264 259 257 256 256
301 303 303 296 293 289 283 286 289 287 288 288 288 288 291 294 295 297 299 299 298 297 298 297 298 299 299 297 290 282 284 283 282 278 278 273 272 268 265 258 256 256 253
306 305 302 299 297 293 285 285 291 292 290 291 293 295 295 297 299 300 300 300 298 295 294 293 293 293 292 291 291 288 280 280 282 282 278 279 273 266 262 260 257 255 253
318 315 313 305 296 291 292 289 286 298 299 298 296 296 296 298 302 304 307 306 304 296 289 287 287 287 286 286 287 284 282 276 277 280 278 277 274 270 262 258 257 255 250
310 307 304 303 303 303 298 296 296 297 297 296 295 296 296 297 299 302 305 304 300 294 293 291 291 292 292 288 283 280 278 276 274 273 277 274 274 273 268 260 253 254 250
305 304 300 295 294 293 292 291 293 296 297 298 298 297 296 295 294 295 299 299 294 293 291 290 291 294 296 294 286 280 273 272 272 272 272 279 272 272 271 260 251 250 247
301 300 298 294 290 290 292 291 292 296 297 295 295 294 294 292 292 293 292 292 288 288 289 290 292 295 295 293 287 279 271 268 269 269 269 277 279 273 272 259 250 248 246
Height
3130 3129 3128 3125 3123 3121 3118 3116 3113 3110 3107 3105 3103 3100 3098 3096 3093 3091 3090 3089 3087 3085 3083 3082 3080 3080 3082 3084 3083 3083 3085 3085 3086 3087 3088 3089 3089 3092 3094 3094 3095 3095 3096
3128 3127 3125 3123 3121 3118 3115 3113 3110 3108 3105 3102 3100 3097 3096 3094 3092 3091 3090 3088 3087 3084 3083 3081 3079 3077 3076 3077 3078 3079 3079 3080 3081 3082 3082 3083 3084 3085 3086 3086 3087 3088 3088
3125 3124 3123 3120 3118 3116 3113 3110 3107 3104 3102 3100 3098 3095 3093 3091 3090 3088 3086 3085 3084 3082 3080 3078 3076 3075 3073 3073 3073 3073 3074 3073 3074 3075 3076 3077 3077 3078 3077 3077 3078 3079 3080
3122 3121 3119 3117 3115 3113 3111 3108 3105 3103 3100 3098 3095 3093 3091 3088 3086 3084 3082 3080 3079 3077 3076 3074 3072 3071 3071 3069 3068 3068 3067 3066 3067 3068 3068 3070 3070 3070 3070 3071 3071 3070 3071
3119 3118 3116 3115 3113 3110 3108 3106 3103 3101 3098 3095 3092 3090 3087 3085 3083 3081 3079 3077 3075 3073 3071 3069 3067 3066 3064 3064 3063 3062 3061 3060 3060 3059 3060 3062 3063 3062 3061 3063 3064 3064 3064
3116 3115 3113 3112 3110 3108 3106 3103 3101 3098 3095 3093 3090 3087 3084 3082 3079 3077 3074 3072 3071 3069 3067 3066 3064 3062 3060 3058 3058 3057 3055 3054 3053 3053 3055 3055 3055 3055 3054 3056 3055 3054 3058
3113 3111 3110 3108 3105 3103 3101 3099 3096 3093 3090 3087 3085 3083 3080 3078 3076 3074 3072 3070 3067 3065 3063 3061 3059 3058 3056 3054 3051 3050 3050 3050 3049 3049 3048 3048 3048 3048 3047 3046 3049 3048 3050
3108 3106 3105 3103 3101 3099 3097 3095 3092 3088 3085 3083 3080 3078 3076 3074 3072 3070 3068 3066 3064 3062 3060 3057 3055 3053 3051 3049 3047 3046 3044 3043 3042 3041 3041 3041 3040 3039 3039 3038 3038 3039 3041
3104 3103 3101 3098 3095 3093 3090 3088 3085 3083 3081 3079 3076 3074 3072 3070 3067 3065 3063 3062 3060 3057 3055 3052 3050 3048 3046 3044 3042 3040 3039 3037 3035 3034 3032 3031 3031 3031 3030 3029 3029 3028 3029
3099 3097 3095 3092 3090 3087 3084 3081 3079 3077 3076 3073 3071 3069 3067 3065 3063 3060 3057 3054 3052 3050 3048 3046 3044 3042 3039 3036 3035 3034 3032 3030 3028 3026 3025 3024 3022 3021 3021 3021 3021 3020 3019
3093 3091 3088 3086 3083 3080 3077 3075 3073 3071 3069 3067 3065 3063 3060 3058 3055 3052 3050 3047 3044 3042 3040 3037 3035 3033 3030 3028 3026 3024 3023 3021 3020 3019 3017 3016 3015 3013 3013 3012 3012 3013 3011
3088 3085 3082 3078 3075 3073 3070 3067 3064 3063 3061 3060 3058 3056 3053 3050 3047 3044 3041 3038 3035 3032 3029 3026 3024 3022 3019 3017 3015 3013 3012 3010 3010 3010 3008 3008 3006 3006 3005 3004 3004 3003 3003
3080 3077 3072 3068 3065 3063 3062 3060 3058 3055 3053 3051 3049 3047 3044 3041 3038 3035 3031 3028 3024 3021 3018 3014 3012 3009 3006 3004 3001 2998 2997 2997 2997 2997 2997 2998 2996 2996 2996 2995 2994 2994 2993
3069 3067 3063 3060 3057 3055 3053 3051 3050 3047 3044 3042 3039 3036 3033 3031 3028 3024 3021 3017 3013 3008 3006 3002 2998 2995 2993 2989 2986 2984 2981 2981 2983 2983 2983 2985 2984 2985 2985 2984 2984 2983 2983
3061 3059 3056 3053 3050 3047 3046 3044 3041 3038 3035 3032 3028 3026 3022 3019 3016 3012 3008 3003 2998 2995 2988 2987 2984 2981 2978 2976 2972 2970 2968 2966 2967 2968 2969 2971 2972 2973 2973 2972 2974 2973 2973
3054 3052 3050 3047 3043 3040 3036 3033 3030 3026 3024 3021 3017 3014 3010 3006 3001 2997 2993 2990 2985 2982 2977 2972 2969 2968 2965 2962 2960 2957 2954 2953 2953 2953 2955 2956 2958 2959 2960 2960 2961 2962 2961
3048 3045 3042 3039 3034 3030 3026 3023 3018 3015 3012 3008 3005 3001 2996 2992 2986 2982 2978 2976 2972 2969 2966 2961 2958 2955 2954 2951 2948 2946 2942 2940 2940 2940 2940 2942 2943 2945 2946 2947 2948 2948 2949
3038 3036 3032 3028 3024 3019 3016 3011 3007 3004 2999 2995 2989 2984 2981 2978 2974 2970 2967 2965 2961 2958 2955 2952 2949 2945 2944 2941 2939 2936 2933 2930 2929 2928 2928 2927 2930 2932 2933 2934 2934 2935 2937
3026 3022 3019 3015 3009 3005 3001 2996 2993 2990 2986 2982 2977 2973 2970 2967 2964 2962 2958 2956 2952 2950 2946 2943 2940 2936 2934 2932 2929 2926 2923 2920 2919 2918 2917 2917 2916 2919 2921 2920 2920 2922 2924
3014 3009 3004 2998 2993 2991 2987 2982 2980 2977 2975 2971 2966 2963 2961 2958 2955 2953 2950 2947 2944 2940 2937 2934 2931 2928 2924 2922 2919 2916 2913 2910 2908 2907 2907 2907 2906 2907 2908 2906 2907 2908 2914
2998 2996 2990 2985 2981 2978 2975 2971 2969 2966 2964 2960 2957 2954 2952 2948 2945 2942 2940 2936 2933 2930 2927 2923 2921 2919 2915 2912 2909 2906 2902 2900 2897 2896 2896 2896 2895 2894 2894 2893 2894 2896 2904
2989 2985 2978 2973 2970 2967 2965 2961 2959 2957 2954 2950 2948 2945 2942 2939 2935 2931 2929 2924 2920 2916 2914 2910 2907 2907 2904 2901 2899 2896 2892 2889 2886 2886 2884 2884 2884 2882 2882 2881 2882 2885 2890
2981 2976 2971 2966 2963 2960 2957 2953 2950 2948 2944 2940 2937 2934 2931 2928 2924 2919 2915 2911 2907 2903 2899 2897 2894 2892 2892 2889 2886 2884 2881 2878 2875 2875 2874 2873 2872 2870 2870 2871 2872 2874 2877
2975 2970 2965 2960 2956 2953 2949 2945 2941 2937 2933 2928 2925 2922 2919 2916 2913 2908 2903 2899 2896 2891 2888 2885 2882 2879 2877 2876 2873 2870 2868 2866 2864 2863 2863 2861 2860 2859 2859 2860 2861 2863 2865
2966 2961 2956 2950 2946 2943 2938 2934 2930 2926 2920 2916 2912 2909 2906 2902 2899 2896 2893 2889 2885 2881 2877 2874 2871 2867 2863 2863 2859 2856 2854 2853 2852 2850 2851 2850 2849 2848 2848 2848 2850 2852 2854
2954 2948 2943 2938 2933 2929 2925 2922 2918 2914 2907 2902 2899 2895 2891 2887 2884 2881 2878 2878 2873 2871 2867 2863 2859 2855 2851 2848 2845 2842 2841 2840 2840 2838 2839 2840 2838 2837 2837 2837 2839 2842 2845